Regional Weather Roundup
Issued by NWS Huntsville, AL

Home | Current Version | Previous Version | Text Only | Print | Product List | Glossary On
Versions: 1 2 3 4 5 6 7 8 9 10 11 12 13 14 15 16 17 18 19 20 21 22 23 24 25 26 27
000
ASUS44 KHUN 291810
RWRHUN

WEATHER ROUNDUP FOR THE TENNESSEE VALLEY
NATIONAL WEATHER SERVICE HUNTSVILLE AL
100 PM CDT MON AUG 29 2016

ALZ001>004-291900-
NORTHWEST ALABAMA

CITY           SKY/WX    TMP DP  RH WIND       PRES   REMARKS
COURTLAND HCN    N/A     90 N/A N/A SE5         N/A
RUSSELLVILLE     N/A     88 N/A N/A MISG        N/A
SHOALS AIRPORT MOSUNNY   91  70  49 S7        30.13F HX  96
6HR MIN TEMP:  72; 6HR MAX TEMP:  91;

$$

ALZ005>007-016-291900-
NORTH CENTRAL ALABAMA

CITY           SKY/WX    TMP DP  RH WIND       PRES   REMARKS
CULLMAN AG STN   N/A     86 N/A N/A SE5         N/A
DECATUR AP     MOSUNNY   90  71  53 VRB5      30.13F HX  96
6HR MIN TEMP:  70; 6HR MAX TEMP:  93;

HUNTSVILLE AP  MOSUNNY   91  69  48 E5        30.12F HX  96
6HR MIN TEMP:  74; 6HR MAX TEMP:  92;

MERIDIANVILLE  SUNNY     88  61  40 S3        30.14F
REDSTONE ARSN  MOSUNNY   89  71  54 E6        30.12F HX  94
VINEMONT AP    FAIR      89  69  51 NE7       30.16S HX  93
$$

ALZ008>010-291900-
NORTHEAST ALABAMA

CITY           SKY/WX    TMP DP  RH WIND       PRES   REMARKS
ALBERTVILLE    PTSUNNY   88  73  62 NE7       30.14F HX  96
FORT PAYNE     SUNNY     88  61  40 E6        30.13F
SCOTTSBORO AP  SUNNY     90  66  45 E7        30.13F HX  92
SCOTTSBORO HCN   N/A     88 N/A N/A MISG        N/A
VALLEY HEAD      N/A     86 N/A N/A MISG        N/A
$$

TNZ076-096-097-291900-
SOUTHEASTERN MIDDLE TENNESSEE

CITY           SKY/WX    TMP DP  RH WIND       PRES   REMARKS
TULLAHOMA      PTSUNNY   86  68  54 NW6       30.18F
WINCHESTER     MOSUNNY   90  68  48 CALM      30.16F HX  93
$$

...SURROUNDING SITES...

CITY           SKY/WX    TMP DP  RH WIND       PRES   REMARKS
ATLANTA        PTSUNNY   86  70  58 NE10      30.14F HX  90
ANNISTON       MOSUNNY   93  65  39 NE10      30.10F HX  95
BIRMINGHAM     MOSUNNY   91  68  46 VRB7      30.12F HX  95
CHATTANOOGA    MOSUNNY   90  63  40 NE7       30.15F HX  91
DALTON         SUNNY     88  66  48 N5        30.15S HX  90
GADSDEN        SUNNY     90  70  51 NE12      30.12F HX  95
GOLDEN TRNGL   SUNNY     91  72  52 E5        30.08  HX  98
JACKSON TN     SUNNY     90  74  59 VRB3      30.12F HX  99
MEMPHIS        MOSUNNY   96  72  45 NE8       30.10F HX 104
NASHVILLE      MOSUNNY   91  70  49 NE6       30.16F HX  96
OXFORD MS      FAIR      91  68  46 E9        30.11S HX  95
ROME           MOSUNNY   88  68  51 SE8       30.12F HX  91
SAVANNAH       MOSUNNY   91  72  52 CALM      30.11F HX  98
TUPELO         SUNNY     92  70  48 N9        30.09F HX  97
TUSCALOOSA     MOSUNNY   93  71  48 NE9       30.07F HX 100
$$

...GULF COAST WEATHER...

CITY           SKY/WX    TMP DP  RH WIND       PRES   REMARKS
GULFPORT       PTSUNNY   90  79  70 SE10      30.00S HX 106
PASCAGOULA     SUNNY     91  74  57 NE10G16   30.00F HX 100
MOBILE         PTSUNNY   89  72  56 E9        30.03S HX  96
GULF SHORES    PTCLDY    89  74  62 E16G22    30.01S HX  98
PENSACOLA      PTSUNNY   91  73  55 E12       30.00F HX  99
DESTIN         SUNNY     91  74  57 E12       30.01S HX 100
PANAMA CITY    MOSUNNY   90  73  56 E8        29.99F HX  98
APPALACHICOLA  SUNNY     90  76  63 E9        29.99F HX 101
$$





USA.gov is the U.S. government's official web portal to all federal, state and local government web resources and services.